Regional Weather Roundup
Issued by NWS

Home | Current Version | Previous Version | Text Only | Print | Product List | Glossary On
Versions: 1 2 3 4 5 6 7 8 9 10 11 12 13 14 15 16 17 18 19 20 21 22 23 24 25 26 27 28 29 30 31 32 33 34 35 36 37 38 39 40 41 42 43 44 45 46 47 48 49 50
000
ASUS44 KMEG 190910
RWRTN
TENNESSEE HOURLY STATE WEATHER ROUNDUP
NATIONAL WEATHER SERVICE MEMPHIS TN
300 AM CST THU JAN 19 2017

TNZ002-004-019-021-049-052-054-088>092-191000-
WEST TENNESSEE

CITY           SKY/WX    TMP DP  RH WIND       PRES   REMARKS
MEMPHIS INTL   CLOUDY    54  53  97 E7        29.95F
NWS MEMPHIS      N/A     53 N/A N/A MISG        N/A
JACKSON        LGT RAIN  51  50  96 CALM      30.00F FOG
DYERSBURG      CLOUDY    46  45  93 E3        29.99F
UNION CITY     CLOUDY   N/A N/A N/A CALM      29.99F
PARIS          CLOUDY    45  43  93 CALM      30.01F
HUNTINGDON     CLOUDY    48  46  93 E5        30.00F
$$

TNZ008-025-027-028-033-062-065-066-191000-
NORTH MIDDLE TENNESSEE

CITY           SKY/WX    TMP DP  RH WIND       PRES   REMARKS
NASHVILLE      CLOUDY    48  42  80 NE5       30.03F
PORTLAND       CLOUDY    45  41  87 E6        30.05S
CLARKSVILLE    CLOUDY    46  41  82 E9        30.03S
SMYRNA         CLOUDY    47  44  90 SE3       30.04F
GALLATIN       CLOUDY    46  43  87 NE5       30.07F
CROSSVILLE     PTCLDY    42  40  92 CALM      30.07F
$$

TNZ061-075-076-078-094-096-097-191000-
SOUTH MIDDLE TENNESSEE

CITY           SKY/WX    TMP DP  RH WIND       PRES   REMARKS
FAYETTEVILLE   CLOUDY    55  50  82 S6        30.02F
TULLAHOMA      MOCLDY    48  45  87 CALM      30.03F
WINCHESTER     MOCLDY    54  48  82 E5        30.03F
MCMINNVILLE    CLOUDY    46  46 100 CALM      30.04S
COLUMBIA       MOCLDY   N/A N/A N/A NE5       30.00F
SHELBYVILLE    CLOUDY    50  48  93 E3        30.03F
$$

TNZ017-018-042-046-047-191000-
NORTHEAST TENNESSEE

CITY           SKY/WX    TMP DP  RH WIND       PRES   REMARKS
TRI CITIES     PTCLDY    39  37  92 CALM      30.10S
ELIZABETHTON   PTCLDY    39  37  93 CALM      30.09F
$$

TNZ012-013-036-069-073-074-191000-
CENTRAL EAST TENNESSEE

CITY           SKY/WX    TMP DP  RH WIND       PRES   REMARKS
KNOXVILLE      PTCLDY    42  39  89 NE3       30.07F
OAK RIDGE      CLOUDY    42  39  89 CALM      30.11F
GATLINBURG     CLEAR     37  37 100 CALM      30.09F
MORRISTOWN     CLEAR     43  41  93 CALM      30.08F
JACKSBORO      CLEAR     41  39  93 CALM      30.13F
$$

TNZ083-085-099-191000-
SOUTHEAST TENNESSEE

CITY           SKY/WX    TMP DP  RH WIND       PRES   REMARKS
CHATTANOOGA    CLOUDY    52  44  74 N6        30.08R
$$

SKY/WX REPORTED AS FAIR MEANS FEW OR NO CLOUDS BELOW
12 THOUSAND FEET.





USA.gov is the U.S. government's official web portal to all federal, state and local government web resources and services.